Weather History for KBOW - January, 2014

Change the Weather History Date:

Wednesday, January 1, 2014

  Actual Average Record
Temperature  
Mean Temperature 60 °F -  
Max Temperature 64 °F - - ()
Min Temperature 57 °F - - ()
Degree Days  
Heating Degree Days 4    
Growing Degree Days 10 (Base 50)    
Moisture  
Dew Point 59 °F    
Average Humidity 93    
Maximum Humidity 100    
Minimum Humidity 68    
Precipitation  
Precipitation 0.01 in - - ()
Sea Level Pressure  
Sea Level Pressure 30.18 in    
Wind  
Wind Speed 7 mph (NE)    
Max Wind Speed 13 mph    
Max Gust Speed 18 mph    
Visibility 9 miles    
Events Rain    
T = Trace of Precipitation, MM = Missing Value Source: NWS Daily Summary

Daily Weather History Graph

Daily Weather History Graph

Search for Another Location

Airport or City:

Trip Planner

Search our weather history database for the weather conditions in past years. The results will help you decide how hot, cold, wet, or windy it might be!

Date:

Astronomy

Jan. 01, 2014 Rise Set
Actual Time 7:18 AM EST 5:43 PM EST
Civil Twilight 6:52 AM EST 6:08 PM EST
Nautical Twilight 6:23 AM EST 6:38 PM EST
Astronomical Twilight 5:54 AM EST 7:06 PM EST
Moon 7:13 AM EST (1/1) 6:20 PM EST (1/1)
Length of Visible Light 11h 16m
Length of Day
10h 24m
New Moon, 0% of the Moon is Illuminated
Jan 1
New Moon
Jan 7
First Quarter
Jan 15
Full
Jan 24
Last Quarter
Jan 30
New

Hourly Weather History & Observations

Time (EST) Temp. Dew Point Humidity Pressure Visibility Wind Dir Wind Speed Gust Speed Precip Events Conditions
12:15 AM 60.8 °F 50.0 °F 68% 30.26 in 10.0 mi NNE 4.6 mph - N/A   Scattered Clouds
12:35 AM 60.8 °F 50.0 °F 68% 30.27 in 10.0 mi NNE 8.1 mph - N/A   Mostly Cloudy
12:55 AM 60.8 °F 51.8 °F 72% 30.26 in 10.0 mi NE 6.9 mph - N/A   Scattered Clouds
1:15 AM 60.8 °F 51.8 °F 72% 30.26 in 10.0 mi NNE 8.1 mph - N/A   Scattered Clouds
1:35 AM 60.8 °F 51.8 °F 72% 30.25 in 10.0 mi NE 5.8 mph - N/A   Overcast
1:55 AM 60.8 °F 51.8 °F 72% 30.25 in 10.0 mi North 6.9 mph - N/A   Overcast
2:15 AM 59.0 °F 51.8 °F 77% 30.24 in 10.0 mi NNE 8.1 mph - N/A   Mostly Cloudy
2:35 AM 59.0 °F 53.6 °F 82% 30.24 in 10.0 mi NNE 6.9 mph - N/A Rain Light Rain
2:55 AM 59.0 °F 53.6 °F 82% 30.24 in 10.0 mi NNE 9.2 mph - N/A   Mostly Cloudy
3:15 AM 59.0 °F 53.6 °F 82% 30.25 in 10.0 mi NNE 5.8 mph - N/A   Mostly Cloudy
3:35 AM 59.0 °F 53.6 °F 82% 30.24 in 10.0 mi NNE 8.1 mph - N/A   Mostly Cloudy
3:55 AM 59.0 °F 55.4 °F 88% 30.24 in 10.0 mi NNE 8.1 mph - N/A   Mostly Cloudy
4:15 AM 59.0 °F 55.4 °F 88% 30.24 in 10.0 mi NNE 9.2 mph - N/A   Overcast
4:35 AM 57.2 °F 53.6 °F 88% 30.24 in 10.0 mi NNE 6.9 mph - N/A   Overcast
4:55 AM 57.2 °F 55.4 °F 94% 30.23 in 10.0 mi NNE 9.2 mph - N/A   Mostly Cloudy
5:15 AM 57.2 °F 53.6 °F 88% 30.23 in 10.0 mi NNE 10.4 mph 16.1 mph N/A   Mostly Cloudy
5:35 AM 57.2 °F 53.6 °F 88% 30.23 in 10.0 mi NNE 11.5 mph - N/A   Mostly Cloudy
5:55 AM 57.2 °F 53.6 °F 88% 30.24 in 10.0 mi NNE 12.7 mph 18.4 mph N/A   Light Drizzle
6:15 AM 57.2 °F 55.4 °F 94% 30.24 in 10.0 mi NNE 10.4 mph - N/A   Overcast
7:50 AM 57.2 °F 55.4 °F 94% 30.25 in 5.0 mi NE 8.1 mph - N/A Rain Light Rain
8:50 AM 57.2 °F 57.2 °F 100% 30.25 in 3.0 mi NNE 8.1 mph - N/A Rain Light Rain
9:55 AM 59.0 °F 59.0 °F 100% 30.26 in 10.0 mi NNE 8.1 mph - N/A   Overcast
10:50 AM 60.8 °F 60.8 °F 100% 30.26 in 10.0 mi NNE 6.9 mph - N/A   Overcast
12:47 PM 62.6 °F - N/A% 30.20 in 8.0 mi NE 8.1 mph - N/A   Overcast
1:50 PM 62.6 °F 62.6 °F 100% 30.16 in 10.0 mi NE 4.6 mph - N/A   Overcast
2:35 PM 64.4 °F 64.4 °F 100% 30.15 in 10.0 mi NNE 8.1 mph - N/A   Overcast
2:50 PM 62.6 °F 62.6 °F 100% 30.15 in 10.0 mi North 5.8 mph - N/A   Overcast
2:55 PM 62.6 °F 62.6 °F 100% 30.15 in 10.0 mi NNE 4.6 mph - N/A   Overcast
3:15 PM 62.6 °F 62.6 °F 100% 30.15 in 10.0 mi NNE 8.1 mph - N/A   Overcast
3:35 PM 62.6 °F 62.6 °F 100% 30.14 in 10.0 mi NE 9.2 mph - N/A   Overcast
3:55 PM 64.4 °F 64.4 °F 100% 30.14 in 10.0 mi NNE 8.1 mph - N/A   Overcast
4:15 PM 64.4 °F 64.4 °F 100% 30.14 in 10.0 mi NE 9.2 mph - N/A   Overcast
4:35 PM 64.4 °F 62.6 °F 94% 30.13 in 10.0 mi ENE 9.2 mph - N/A   Overcast
4:55 PM 64.4 °F 62.6 °F 94% 30.13 in 10.0 mi NE 8.1 mph - N/A   Overcast
5:15 PM 64.4 °F 62.6 °F 94% 30.13 in 10.0 mi NE 9.2 mph - N/A   Overcast
5:35 PM 64.4 °F 64.4 °F 100% 30.13 in 10.0 mi NE 9.2 mph - N/A   Overcast
5:55 PM 62.6 °F 62.6 °F 100% 30.13 in 8.0 mi NNE 11.5 mph - N/A   Overcast
6:15 PM 62.6 °F 62.6 °F 100% 30.14 in 7.0 mi NNE 9.2 mph - N/A   Overcast
6:35 PM 62.6 °F 62.6 °F 100% 30.14 in 10.0 mi NE 8.1 mph - N/A   Overcast
6:55 PM 62.6 °F 62.6 °F 100% 30.14 in 10.0 mi NE 6.9 mph - N/A   Overcast
7:15 PM 62.6 °F 62.6 °F 100% 30.13 in 10.0 mi ENE 10.4 mph - N/A   Overcast
7:35 PM 62.6 °F 62.6 °F 100% 30.13 in 10.0 mi NE 8.1 mph - N/A   Overcast
7:55 PM 62.6 °F 62.6 °F 100% 30.13 in 10.0 mi NE 9.2 mph - N/A   Overcast
8:15 PM 62.6 °F 62.6 °F 100% 30.13 in 10.0 mi ENE 10.4 mph - N/A   Overcast
8:35 PM 62.6 °F 62.6 °F 100% 30.13 in 10.0 mi NE 9.2 mph - N/A   Overcast
8:55 PM 62.6 °F 62.6 °F 100% 30.13 in 10.0 mi NNE 6.9 mph - N/A   Overcast
9:15 PM 62.6 °F 62.6 °F 100% 30.12 in 10.0 mi NE 8.1 mph - N/A   Overcast
9:35 PM 62.6 °F 62.6 °F 100% 30.12 in 10.0 mi NE 6.9 mph - N/A   Overcast
9:55 PM 62.6 °F 62.6 °F 100% 30.12 in 10.0 mi NNE 6.9 mph - N/A   Overcast
10:15 PM 62.6 °F 62.6 °F 100% 30.12 in 10.0 mi NE 3.5 mph - N/A   Overcast
10:35 PM 62.6 °F 62.6 °F 100% 30.11 in 8.0 mi NE 6.9 mph - N/A   Overcast
10:55 PM 62.6 °F 62.6 °F 100% 30.11 in 9.0 mi NE 4.6 mph - N/A   Overcast
11:15 PM 62.6 °F 62.6 °F 100% 30.10 in 9.0 mi Calm Calm - N/A   Overcast
11:35 PM 62.6 °F - N/A% 30.10 in 3.0 mi Calm Calm - N/A Rain Light Rain
11:55 PM 62.6 °F - N/A% 30.08 in 2.5 mi Calm Calm - 0.01 in Rain Light Rain